Flag for Greece Weather past 2 weeks in Peristeri, Greece

Now
97 °F

Passing clouds.


Feels Like: 96 °F
Forecast: 69 / 98 °F
Wind: 8 mph from Southwest

Location: Elefsis Airport

Current Time: Sep 4, 2015 at 3:49:32 PM

Latest Report: Sep 4, 2015 at 2:50 PM


Visibility: N/A

Pressure: 29.86 "Hg

Humidity: 27%

Dew point: 57 °F

Location of PeristeriLocation

Historic Weather in Peristeri — Graph

°F

Peristeri temperature yesterday

Maximum temperature yesterday: 93 °F (at 1:20 PM)
Minimum temperature yesterday: 70 °F (at 3:50 AM)
Average temperature yesterday: 81 °F

Past Weeks' High & Low Weather Summary

 TemperatureHumidityPressure
High97 °F (Aug 20, 2:20 PM)74% (Aug 21, 3:20 PM)30.09 "Hg (Aug 21, 3:20 PM)
Low66 °F (Sep 2, 6:50 AM)12% (Aug 29, 3:20 PM)29.80 "Hg (Aug 22, 5:20 PM)
Average82 °F39%29.94 "Hg
* Reported Aug 20 2:20 PM — Sep 4 2:20 PM, Peristeri, Weather by CustomWeather, © 2015

Note: Actual official high and low records may vary slightly from our data, if they occured in-between our weather recording intervals... More about our weather records

Advertising

Peristeri weather history for previous 24 hours

 ConditionsComfort  
Time TempWeatherWind HumidityBarometerVisibility
2:20 PM
Fri, Sep 4
95 °FPassing clouds.9 mph30%29.89 "HgN/A
1:50 PM93 °FPassing clouds.9 mph36%29.89 "HgN/A
1:20 PM91 °FSunny.9 mph41%29.89 "Hg10 mi
12:50 PM91 °FSunny.8 mph41%29.89 "Hg10 mi
12:20 PM91 °FSunny.8 mph41%29.89 "Hg10 mi
11:50 AM90 °FSunny.7 mph46%29.89 "Hg10 mi
11:20 AM88 °FSunny.6 mph49%29.89 "Hg10 mi
10:50 AM88 °FSunny.7 mph38%29.89 "Hg10 mi
10:20 AM86 °FSunny.5 mph43%29.89 "Hg10 mi
9:50 AM86 °FSunny.No wind40%29.89 "Hg10 mi
9:20 AM84 °FSunny.No wind43%29.89 "Hg10 mi
8:50 AM81 °FSunny.No wind51%29.89 "Hg10 mi
8:20 AM77 °FSunny.No wind57%29.86 "Hg10 mi
7:50 AM73 °FClear.No wind65%29.86 "Hg10 mi
7:20 AM70 °FClear.No wind73%29.86 "Hg10 mi
6:50 AM70 °FClear.No wind73%29.86 "Hg10 mi
5:50 AM72 °FClear.No wind65%29.86 "Hg10 mi
5:20 AM73 °FClear.No wind65%29.86 "Hg10 mi
4:50 AM70 °FClear.No wind73%29.86 "Hg10 mi
4:20 AM73 °FClear.No wind65%29.86 "Hg10 mi
3:50 AM70 °FClear.No wind69%29.86 "Hg10 mi
3:20 AM70 °FClear.No wind69%29.86 "Hg10 mi
2:50 AM73 °FClear.No wind65%29.86 "Hg10 mi
2:20 AM73 °FClear.No wind65%29.86 "Hg10 mi
1:50 AM73 °FClear.No wind65%29.86 "Hg10 mi
1:20 AM75 °FClear.No wind57%29.86 "Hg10 mi
12:50 AM75 °FClear.No wind61%29.86 "Hg10 mi
12:20 AM75 °FClear.No wind65%29.86 "Hg10 mi
11:50 PM
Thu, Sep 3
75 °FClear.No wind65%29.86 "Hg10 mi
11:20 PM79 °FClear.No wind58%29.86 "Hg10 mi
10:50 PM79 °FClear.No wind58%29.86 "Hg10 mi
10:20 PM79 °FClear.No wind58%29.86 "Hg10 mi
9:50 PM79 °FClear.No wind58%29.86 "Hg10 mi
9:20 PM81 °FClear.No wind54%29.86 "Hg10 mi
8:50 PM81 °FSunny.No wind58%29.83 "Hg10 mi
8:20 PM81 °FSunny.5 mph58%29.83 "Hg10 mi
7:50 PM82 °FSunny.3 mph55%29.83 "Hg10 mi
7:20 PM84 °FPassing clouds.3 mph51%29.83 "HgN/A
6:50 PM86 °FSunny.7 mph49%29.83 "Hg10 mi
5:50 PM86 °FPassing clouds.9 mph52%29.80 "HgN/A
5:20 PM88 °FPassing clouds.12 mph49%29.80 "HgN/A
4:50 PM88 °FPassing clouds.12 mph49%29.80 "HgN/A
4:20 PM90 °FPassing clouds.12 mph43%29.80 "HgN/A
3:50 PM91 °FPassing clouds.12 mph41%29.80 "HgN/A
3:20 PM91 °FPassing clouds.12 mph38%29.80 "HgN/A
Weather by CustomWeather, © 2015

See weather overviewHow to use our weather pages